• în România
  • Lista ţărilor
  • Pe 7 zile
  • Temperatura apei
  • Hartă satelitară
  • Meteo pe hartă
  • Widget-uri
  • user-avatar
    Intrare

    Meteo pe oră la Satif

    Astăzi, 22 Februarie, Miercuri

    Timp Temperatura Precipitaţii Vânt Presiune Umiditate
    00:00 +6°C° 0 mm 2 m/s 674 mmHg 72%
    01:00 +6°C° 0 mm 2 m/s 674 mmHg 74%
    02:00 +5°C° 0 mm 2 m/s 674 mmHg 75%
    03:00 +5°C° 0 mm 2 m/s 674 mmHg 76%
    04:00 +5°C° 0 mm 2 m/s 674 mmHg 76%
    05:00 +5°C° 0 mm 2 m/s 674 mmHg 76%
    06:00 +5°C° 0 mm 2 m/s 674 mmHg 75%
    07:00 +8°C° 0 mm 2 m/s 675 mmHg 66%
    08:00 +12°C° 0 mm 2 m/s 675 mmHg 56%
    09:00 +14°C° 0 mm 2 m/s 676 mmHg 47%
    10:00 +16°C° 0 mm 2 m/s 676 mmHg 42%
    11:00 +19°C° 0 mm 2 m/s 677 mmHg 36%
    12:00 +21°C° 0 mm 2 m/s 677 mmHg 31%
    13:00 +20°C° 0 mm 2 m/s 677 mmHg 33%
    14:00 +20°C° 0 mm 2 m/s 676 mmHg 34%
    15:00 +19°C° 0 mm 2 m/s 676 mmHg 36%
    16:00 +17°C° 0 mm 2 m/s 675 mmHg 44%
    17:00 +14°C° 0 mm 2 m/s 674 mmHg 52%
    18:00 +11°C° 0 mm 1 m/s 673 mmHg 60%
    19:00 +11°C° 0 mm 1 m/s 673 mmHg 61%
    20:00 +10°C° 0 mm 1 m/s 673 mmHg 61%
    21:00 +10°C° 0 mm 1 m/s 673 mmHg 61%
    22:00 +9°C° 0 mm 2 m/s 673 mmHg 60%
    23:00 +9°C° 0 mm 2 m/s 673 mmHg 60%

    Mâine, 23 Februarie, Joi

    Timp Temperatura Precipitaţii Vânt Presiune Umiditate
    00:00 +9°C° 0 mm 2 m/s 673 mmHg 59%
    01:00 +8°C° 0 mm 2 m/s 673 mmHg 61%
    02:00 +8°C° 0 mm 2 m/s 673 mmHg 63%
    03:00 +8°C° 0 mm 2 m/s 672 mmHg 64%
    04:00 +8°C° 0 mm 2 m/s 672 mmHg 65%
    05:00 +8°C° 0 mm 2 m/s 672 mmHg 65%
    06:00 +8°C° 0 mm 2 m/s 672 mmHg 65%
    07:00 +10°C° 0,1 mm 2 m/s 673 mmHg 60%
    08:00 +14°C° 0,1 mm 2 m/s 673 mmHg 55%
    09:00 +16°C° 0,1 mm 2 m/s 674 mmHg 50%
    10:00 +18°C° 0 mm 3 m/s 674 mmHg 44%
    11:00 +19°C° 0 mm 3 m/s 674 mmHg 38%
    12:00 +21°C° 0 mm 4 m/s 674 mmHg 32%
    13:00 +20°C° 0 mm 4 m/s 673 mmHg 35%
    14:00 +20°C° 0 mm 4 m/s 673 mmHg 38%
    15:00 +19°C° 0 mm 4 m/s 672 mmHg 41%
    16:00 +17°C° 0,1 mm 3 m/s 671 mmHg 48%
    17:00 +15°C° 0,1 mm 2 m/s 671 mmHg 54%
    18:00 +13°C° 0,1 mm 1 m/s 670 mmHg 61%
    19:00 +12°C° 0,1 mm 2 m/s 669 mmHg 62%
    20:00 +12°C° 0,1 mm 2 m/s 669 mmHg 64%
    21:00 +10°C° 0,1 mm 2 m/s 669 mmHg 65%
    22:00 +10°C° 0,1 mm 3 m/s 668 mmHg 64%
    23:00 +10°C° 0,1 mm 3 m/s 668 mmHg 62%

    Poimâine, 24 Februarie, Vineri

    Timp Temperatura Precipitaţii Vânt Presiune Umiditate
    00:00 +10°C° 0,1 mm 3 m/s 667 mmHg 61%
    01:00 +10°C° 0 mm 3 m/s 667 mmHg 60%
    02:00 +9°C° 0 mm 2 m/s 667 mmHg 59%
    03:00 +9°C° 0 mm 2 m/s 666 mmHg 57%
    04:00 +8°C° 0 mm 2 m/s 666 mmHg 58%
    05:00 +7°C° 0 mm 2 m/s 666 mmHg 59%
    06:00 +7°C° 0 mm 2 m/s 666 mmHg 60%
    07:00 +9°C° 0 mm 2 m/s 667 mmHg 55%
    08:00 +12°C° 0 mm 2 m/s 668 mmHg 50%
    09:00 +15°C° 0 mm 2 m/s 669 mmHg 44%
    10:00 +15°C° 0 mm 2 m/s 669 mmHg 43%
    11:00 +16°C° 0 mm 3 m/s 669 mmHg 42%
    12:00 +17°C° 0 mm 3 m/s 669 mmHg 40%
    13:00 +17°C° 0,3 mm 3 m/s 669 mmHg 45%
    14:00 +16°C° 0,3 mm 3 m/s 669 mmHg 50%
    15:00 +14°C° 0,3 mm 3 m/s 668 mmHg 55%
    16:00 +12°C° 0,4 mm 3 m/s 668 mmHg 65%
    17:00 +10°C° 0,4 mm 2 m/s 668 mmHg 75%
    18:00 +9°C° 0,4 mm 2 m/s 668 mmHg 86%
    19:00 +8°C° 0,1 mm 2 m/s 669 mmHg 89%
    20:00 +8°C° 0,1 mm 1 m/s 669 mmHg 91%
    21:00 +8°C° 0,1 mm 1 m/s 670 mmHg 94%
    22:00 +8°C° 0,1 mm 1 m/s 670 mmHg 95%
    23:00 +8°C° 0,1 mm 1 m/s 670 mmHg 95%

    25 Februarie, Sâmbătă

    Timp Temperatura Precipitaţii Vânt Presiune Umiditate
    00:00 +7°C° 0,1 mm 1 m/s 670 mmHg 95%
    01:00 +7°C° 0,4 mm 1 m/s 670 mmHg 95%
    02:00 +7°C° 0,4 mm 1 m/s 670 mmHg 95%
    03:00 +7°C° 0,4 mm 1 m/s 670 mmHg 95%
    04:00 +7°C° 0,3 mm 1 m/s 670 mmHg 95%
    05:00 +6°C° 0,3 mm 2 m/s 670 mmHg 95%
    06:00 +6°C° 0,3 mm 2 m/s 671 mmHg 95%
    07:00 +6°C° 0,1 mm 2 m/s 671 mmHg 91%
    08:00 +7°C° 0,1 mm 2 m/s 672 mmHg 88%
    09:00 +7°C° 0,1 mm 2 m/s 672 mmHg 84%
    10:00 +8°C° 0,1 mm 3 m/s 673 mmHg 78%
    11:00 +9°C° 0,1 mm 3 m/s 673 mmHg 72%
    12:00 +10°C° 0,1 mm 3 m/s 673 mmHg 66%
    13:00 +10°C° 0 mm 3 m/s 673 mmHg 63%
    14:00 +10°C° 0 mm 3 m/s 673 mmHg 60%
    15:00 +10°C° 0 mm 3 m/s 672 mmHg 58%
    16:00 +8°C° 0 mm 3 m/s 672 mmHg 66%
    17:00 +6°C° 0 mm 2 m/s 672 mmHg 75%
    18:00 +4°C° 0 mm 2 m/s 672 mmHg 83%
    19:00 +3°C° 0 mm 2 m/s 672 mmHg 87%
    20:00 +3°C° 0 mm 1 m/s 672 mmHg 90%
    21:00 +3°C° 0 mm 1 m/s 672 mmHg 93%
    22:00 +2°C° 0 mm 1 m/s 672 mmHg 93%
    23:00 +2°C° 0 mm 1 m/s 672 mmHg 93%

    26 Februarie, Duminică

    Timp Temperatura Precipitaţii Vânt Presiune Umiditate
    00:00 +1°C° 0 mm 1 m/s 672 mmHg 94%
    01:00 +1°C° 0 mm 1 m/s 672 mmHg 93%
    02:00 +1°C° 0 mm 1 m/s 672 mmHg 93%
    03:00 0°C° 0 mm 1 m/s 671 mmHg 93%
    04:00 0°C° 0 mm 1 m/s 672 mmHg 92%
    05:00 0°C° 0 mm 1 m/s 672 mmHg 92%
    06:00 0°C° 0 mm 1 m/s 672 mmHg 92%
    07:00 +3°C° 0 mm 1 m/s 673 mmHg 81%
    08:00 +6°C° 0 mm 1 m/s 674 mmHg 71%
    09:00 +9°C° 0 mm 1 m/s 675 mmHg 60%
    10:00 +10°C° 0 mm 1 m/s 675 mmHg 54%
    11:00 +11°C° 0 mm 1 m/s 675 mmHg 48%
    12:00 +13°C° 0 mm 2 m/s 675 mmHg 42%
    13:00 +13°C° 0 mm 2 m/s 675 mmHg 43%
    14:00 +13°C° 0 mm 2 m/s 674 mmHg 44%
    15:00 +13°C° 0 mm 2 m/s 674 mmHg 45%
    16:00 +10°C° 0 mm 2 m/s 673 mmHg 57%
    17:00 +7°C° 0 mm 2 m/s 673 mmHg 68%
    18:00 +5°C° 0 mm 1 m/s 672 mmHg 80%
    19:00 +4°C° 0 mm 1 m/s 672 mmHg 84%
    20:00 +3°C° 0 mm 1 m/s 672 mmHg 88%
    21:00 +2°C° 0 mm 1 m/s 672 mmHg 91%
    22:00 +2°C° 0 mm 1 m/s 672 mmHg 91%
    23:00 +2°C° 0 mm 1 m/s 672 mmHg 91%

    27 Februarie, Luni

    Timp Temperatura Precipitaţii Vânt Presiune Umiditate
    00:00 +2°C° 0 mm 1 m/s 672 mmHg 91%
    01:00 +2°C° 0 mm 1 m/s 672 mmHg 90%
    02:00 +2°C° 0 mm 1 m/s 672 mmHg 89%
    03:00 +2°C° 0 mm 1 m/s 671 mmHg 88%
    04:00 +2°C° 0 mm 1 m/s 671 mmHg 87%
    05:00 +2°C° 0 mm 1 m/s 671 mmHg 86%
    06:00 +2°C° 0 mm 1 m/s 671 mmHg 84%
    07:00 +5°C° 0 mm 1 m/s 672 mmHg 72%
    08:00 +7°C° 0 mm 2 m/s 673 mmHg 59%
    09:00 +10°C° 0 mm 2 m/s 674 mmHg 47%
    10:00 +13°C° 0 mm 2 m/s 674 mmHg 42%
    11:00 +15°C° 0 mm 2 m/s 674 mmHg 37%
    12:00 +16°C° 0 mm 3 m/s 674 mmHg 32%
    13:00 +16°C° 0 mm 3 m/s 674 mmHg 33%
    14:00 +16°C° 0 mm 3 m/s 673 mmHg 34%
    15:00 +16°C° 0 mm 3 m/s 673 mmHg 35%
    16:00 +13°C° 0 mm 2 m/s 672 mmHg 45%
    17:00 +9°C° 0 mm 2 m/s 671 mmHg 55%
    18:00 +7°C° 0 mm 1 m/s 670 mmHg 65%
    19:00 +7°C° 0 mm 1 m/s 670 mmHg 64%
    20:00 +7°C° 0 mm 1 m/s 670 mmHg 64%
    21:00 +5°C° 0 mm 2 m/s 670 mmHg 64%
    22:00 +5°C° 0 mm 2 m/s 670 mmHg 63%
    23:00 +5°C° 0 mm 2 m/s 670 mmHg 63%
    Arată mai mult